Time,TemperatureF,DewpointF,PressureIn,WindDirection,WindDirectionDegrees,WindSpeedMPH,WindSpeedGustMPH,Humidity,HourlyPrecipIn,Conditions,Clouds,dailyrainin,SoftwareType,DateUTC
2015-01-30 00:22:00,43.0,33.0,30.43,NW,324,2.0,14.0,68,0.00,,,0.02,,2015-01-30 06:22:00,
2015-01-30 00:42:00,43.0,33.0,30.42,NE,51,1.0,15.0,67,0.00,,,0.02,,2015-01-30 06:42:00,
2015-01-30 00:52:00,42.0,32.0,30.42,ENE,72,1.0,11.0,67,0.00,,,0.02,,2015-01-30 06:52:00,
2015-01-30 01:12:00,42.0,31.0,30.42,North,9,3.0,13.0,66,0.00,,,0.02,,2015-01-30 07:12:00,
2015-01-30 01:22:00,42.0,31.0,30.41,East,84,1.0,12.0,64,0.00,,,0.02,,2015-01-30 07:22:00,
2015-01-30 01:53:00,42.0,31.0,30.41,ENE,67,0.0,7.0,66,0.00,,,0.02,,2015-01-30 07:53:00,
2015-01-30 02:22:00,41.0,30.0,30.41,SE,136,1.0,6.0,65,0.00,,,0.02,,2015-01-30 08:22:00,
2015-01-30 02:42:00,41.0,30.0,30.41,NNE,30,1.0,11.0,65,0.00,,,0.02,,2015-01-30 08:42:00,
2015-01-30 02:52:00,40.0,29.0,30.37,NE,49,5.0,13.0,65,0.00,,,0.02,,2015-01-30 08:52:00,
2015-01-30 03:12:00,40.0,30.0,30.37,ESE,111,2.0,10.0,66,0.00,,,0.02,,2015-01-30 09:12:00,
2015-01-30 03:22:00,40.0,30.0,30.37,ESE,115,3.0,6.0,66,0.00,,,0.02,,2015-01-30 09:22:00,
2015-01-30 03:54:00,39.0,28.0,30.36,ENE,68,0.0,4.0,64,0.00,,,0.02,,2015-01-30 09:54:00,
2015-01-30 04:13:00,39.0,28.0,30.36,NE,48,0.0,4.0,64,0.00,,,0.02,,2015-01-30 10:13:00,
2015-01-30 04:23:00,39.0,28.0,30.34,East,82,0.0,5.0,65,0.00,,,0.02,,2015-01-30 10:23:00,
2015-01-30 04:43:00,39.0,28.0,30.34,East,98,0.0,5.0,64,0.00,,,0.02,,2015-01-30 10:43:00,
2015-01-30 04:54:00,39.0,28.0,30.34,East,101,1.0,7.0,65,0.00,,,0.02,,2015-01-30 10:54:00,
2015-01-30 05:13:00,38.0,27.0,30.34,ESE,110,1.0,9.0,64,0.00,,,0.02,,2015-01-30 11:13:00,
2015-01-30 05:23:00,38.0,27.0,30.34,ESE,110,1.0,6.0,64,0.00,,,0.02,,2015-01-30 11:23:00,
2015-01-30 05:42:00,38.0,27.0,30.34,ESE,112,1.0,6.0,65,0.00,,,0.02,,2015-01-30 11:42:00,
2015-01-30 05:53:00,38.0,27.0,30.34,NE,44,1.0,4.0,65,0.00,,,0.02,,2015-01-30 11:53:00,
2015-01-30 06:22:00,38.0,27.0,30.35,ESE,118,2.0,5.0,65,0.00,,,0.02,,2015-01-30 12:22:00,
2015-01-30 06:43:00,37.0,27.0,30.35,ESE,110,0.0,4.0,66,0.00,,,0.02,,2015-01-30 12:43:00,
2015-01-30 06:52:00,37.0,27.0,30.35,East,87,2.0,5.0,67,0.00,,,0.02,,2015-01-30 12:52:00,
2015-01-30 07:12:00,37.0,27.0,30.35,SE,129,0.0,7.0,67,0.00,,,0.02,,2015-01-30 13:12:00,
2015-01-30 07:22:00,37.0,27.0,30.35,ESE,111,3.0,7.0,68,0.00,,,0.02,,2015-01-30 13:22:00,
2015-01-30 07:42:00,36.0,26.0,30.35,ESE,123,2.0,6.0,68,0.00,,,0.02,,2015-01-30 13:42:00,
2015-01-30 07:52:00,37.0,27.0,30.33,ESE,116,0.0,5.0,68,0.00,,,0.02,,2015-01-30 13:52:00,
2015-01-30 08:22:00,36.0,27.0,30.33,ESE,103,1.0,9.0,69,0.00,,,0.02,,2015-01-30 14:22:00,
2015-01-30 08:42:00,37.0,28.0,30.33,ESE,115,3.0,6.0,69,0.00,,,0.02,,2015-01-30 14:42:00,
2015-01-30 08:52:00,37.0,28.0,30.32,ESE,111,5.0,10.0,69,0.00,,,0.02,,2015-01-30 14:52:00,
2015-01-30 09:12:00,37.0,28.0,30.32,East,90,5.0,11.0,71,0.00,,,0.02,,2015-01-30 15:12:00,
2015-01-30 09:22:00,37.0,28.0,30.32,East,94,5.0,13.0,70,0.00,,,0.02,,2015-01-30 15:22:00,
2015-01-30 09:53:00,38.0,29.0,30.32,ESE,113,5.0,11.0,69,0.00,,,0.02,,2015-01-30 15:53:00,
2015-01-30 10:13:00,37.0,28.0,30.31,East,94,2.0,12.0,69,0.00,,,0.02,,2015-01-30 16:13:00,
2015-01-30 10:24:00,38.0,29.0,30.32,ENE,61,2.0,7.0,69,0.00,,,0.02,,2015-01-30 16:24:00,
2015-01-30 10:43:00,39.0,30.0,30.32,ENE,71,1.0,10.0,69,0.00,,,0.02,,2015-01-30 16:43:00,
2015-01-30 10:54:00,40.0,30.0,30.32,ENE,72,2.0,4.0,68,0.00,,,0.02,,2015-01-30 16:54:00,
2015-01-30 11:23:00,41.0,31.0,30.32,ESE,110,2.0,10.0,67,0.00,,,0.02,,2015-01-30 17:23:00,
2015-01-30 11:43:00,41.0,31.0,30.32,ESE,111,2.0,7.0,66,0.00,,,0.02,,2015-01-30 17:43:00,
2015-01-30 11:53:00,42.0,32.0,30.29,ESE,103,0.0,10.0,67,0.00,,,0.02,,2015-01-30 17:53:00,
2015-01-30 12:22:00,42.0,31.0,30.28,East,99,7.0,10.0,66,0.00,,,0.02,,2015-01-30 18:22:00,
2015-01-30 12:43:00,42.0,31.0,30.29,ENE,67,1.0,5.0,66,0.00,,,0.02,,2015-01-30 18:43:00,
2015-01-30 12:54:00,43.0,32.0,30.28,East,101,3.0,7.0,66,0.00,,,0.02,,2015-01-30 18:54:00,
2015-01-30 13:23:00,44.0,33.0,30.26,ESE,110,3.0,9.0,65,0.00,,,0.02,,2015-01-30 19:23:00,
2015-01-30 13:53:00,45.0,34.0,30.23,East,95,1.0,6.0,64,0.00,,,0.02,,2015-01-30 19:53:00,
2015-01-30 14:22:00,47.0,34.0,30.21,East,98,2.0,9.0,61,0.00,,,0.02,,2015-01-30 20:22:00,
2015-01-30 14:52:00,46.0,34.0,30.21,NE,55,3.0,7.0,62,0.00,,,0.02,,2015-01-30 20:52:00,
2015-01-30 15:22:00,46.0,35.0,30.21,ESE,111,2.0,13.0,64,0.00,,,0.02,,2015-01-30 21:22:00,
2015-01-30 15:43:00,45.0,33.0,30.21,East,88,2.0,10.0,63,0.00,,,0.02,,2015-01-30 21:43:00,
2015-01-30 15:54:00,45.0,34.0,30.21,ENE,67,0.0,7.0,64,0.00,,,0.02,,2015-01-30 21:54:00,
2015-01-30 16:23:00,44.0,33.0,30.17,SE,129,3.0,11.0,66,0.00,,,0.02,,2015-01-30 22:23:00,
2015-01-30 16:44:00,44.0,33.0,30.16,ESE,113,2.0,13.0,66,0.00,,,0.02,,2015-01-30 22:44:00,
2015-01-30 16:53:00,43.0,34.0,30.15,ESE,122,5.0,10.0,69,0.00,,,0.02,,2015-01-30 22:53:00,
2015-01-30 17:22:00,41.0,34.0,30.14,South,180,2.0,7.0,76,0.01,,,0.03,,2015-01-30 23:22:00,
2015-01-30 17:43:00,40.0,34.0,30.16,ENE,63,0.0,6.0,78,0.02,,,0.04,,2015-01-30 23:43:00,
2015-01-30 17:52:00,40.0,34.0,30.15,SE,140,3.0,6.0,78,0.02,,,0.04,,2015-01-30 23:52:00,